Location: Fontenoy
(49.4072°N, 3.2008°E)
Time: 05:21:10
(UTC+00:00)

COSMOS 2428 - Pass Details

Date: 15 May 2026
Orbit: 844 x 855 km, 70.9° (Epoch: 6 June)

Event Time Altitude Azimuth Distance (km) Brightness Sun altitude
Rises 21:05:10 0° 334° (NNW) 3,427 7.6 -13.1°
Reaches altitude 10° 21:08:05 10° 347° (NNW) 2,486 6.2 -13.4°
Maximum altitude 21:12:45 25° 43° (NE) 1,645 4.3 -13.8°
Drops below altitude 10° 21:17:23 10° 98° (E) 2,471 4.7 -14.3°
Enters shadow 21:17:36 - 99° (E) 2,531 4.8 -14.3°
